• Em Portugal
  • Lista de países
  • Para 7 dias
  • Temperatura da água
  • Mapas de satélite
  • Mapa do tempo
  • Widgets de tempo
  • user-avatar
    Iniciar Sessão

    Previsão horária em Kamionka

    Hoje, 18 Julho, Quarta-feira

    Tempo Temperatura Precipitação Vento Pressão Humidade
    00:00 +14°C° 0,1 mm 4 m/s 701 mmHg 94%
    01:00 +14°C° 0 mm 4 m/s 701 mmHg 94%
    02:00 +14°C° 0,1 mm 4 m/s 700 mmHg 94%
    03:00 +14°C° 0,1 mm 5 m/s 700 mmHg 94%
    04:00 +14°C° 0,1 mm 5 m/s 700 mmHg 93%
    05:00 +14°C° 0,5 mm 5 m/s 700 mmHg 93%
    06:00 +14°C° 0,5 mm 6 m/s 701 mmHg 92%
    07:00 +15°C° 0,5 mm 6 m/s 701 mmHg 92%
    08:00 +15°C° 0,9 mm 6 m/s 701 mmHg 92%
    09:00 +15°C° 0,9 mm 6 m/s 701 mmHg 91%
    10:00 +15°C° 0,9 mm 7 m/s 701 mmHg 91%
    11:00 +15°C° 0,7 mm 6 m/s 702 mmHg 91%
    12:00 +15°C° 0,7 mm 6 m/s 702 mmHg 90%
    13:00 +16°C° 0,7 mm 6 m/s 702 mmHg 90%
    14:00 +16°C° 0,5 mm 6 m/s 702 mmHg 89%
    15:00 +16°C° 0,5 mm 6 m/s 703 mmHg 88%
    16:00 +16°C° 0,5 mm 5 m/s 703 mmHg 87%
    17:00 +16°C° 0,4 mm 5 m/s 703 mmHg 88%
    18:00 +17°C° 0,4 mm 4 m/s 703 mmHg 89%
    19:00 +17°C° 0,4 mm 3 m/s 703 mmHg 90%
    20:00 +16°C° 0,3 mm 3 m/s 704 mmHg 91%
    21:00 +16°C° 0,3 mm 3 m/s 704 mmHg 92%
    22:00 +14°C° 0,3 mm 3 m/s 704 mmHg 93%
    23:00 +14°C° 0,1 mm 3 m/s 704 mmHg 93%

    Amanhã, 19 Julho, Quinta-feira

    Tempo Temperatura Precipitação Vento Pressão Humidade
    00:00 +14°C° 0,1 mm 3 m/s 704 mmHg 93%
    01:00 +14°C° 0,1 mm 3 m/s 704 mmHg 94%
    02:00 +14°C° 0 mm 3 m/s 704 mmHg 94%
    03:00 +13°C° 0 mm 3 m/s 704 mmHg 95%
    04:00 +13°C° 0 mm 3 m/s 704 mmHg 95%
    05:00 +14°C° 0 mm 4 m/s 704 mmHg 93%
    06:00 +15°C° 0 mm 5 m/s 704 mmHg 90%
    07:00 +15°C° 0 mm 5 m/s 705 mmHg 87%
    08:00 +16°C° 0,1 mm 5 m/s 705 mmHg 84%
    09:00 +17°C° 0,1 mm 5 m/s 705 mmHg 81%
    10:00 +17°C° 0,1 mm 5 m/s 705 mmHg 78%
    11:00 +19°C° 0,2 mm 5 m/s 705 mmHg 77%
    12:00 +19°C° 0,2 mm 5 m/s 705 mmHg 77%
    13:00 +19°C° 0,2 mm 4 m/s 705 mmHg 77%
    14:00 +19°C° 0,2 mm 4 m/s 705 mmHg 77%
    15:00 +19°C° 0,2 mm 4 m/s 705 mmHg 76%
    16:00 +20°C° 0,2 mm 4 m/s 705 mmHg 76%
    17:00 +19°C° 0,1 mm 4 m/s 705 mmHg 78%
    18:00 +19°C° 0,1 mm 3 m/s 705 mmHg 80%
    19:00 +18°C° 0,1 mm 3 m/s 705 mmHg 83%
    20:00 +17°C° 0 mm 3 m/s 705 mmHg 86%
    21:00 +16°C° 0 mm 2 m/s 705 mmHg 90%
    22:00 +14°C° 0 mm 2 m/s 705 mmHg 94%
    23:00 +14°C° 0 mm 2 m/s 705 mmHg 94%

    Depois de amanhã, 20 Julho, Sexta-feira

    Tempo Temperatura Precipitação Vento Pressão Humidade
    00:00 +14°C° 0 mm 2 m/s 705 mmHg 94%
    01:00 +14°C° 0 mm 2 m/s 705 mmHg 94%
    02:00 +14°C° 0 mm 2 m/s 705 mmHg 94%
    03:00 +14°C° 0 mm 2 m/s 705 mmHg 95%
    04:00 +14°C° 0 mm 2 m/s 705 mmHg 95%
    05:00 +14°C° 0 mm 2 m/s 705 mmHg 91%
    06:00 +14°C° 0 mm 3 m/s 705 mmHg 87%
    07:00 +16°C° 0 mm 3 m/s 705 mmHg 83%
    08:00 +17°C° 0 mm 3 m/s 706 mmHg 76%
    09:00 +19°C° 0 mm 3 m/s 706 mmHg 70%
    10:00 +20°C° 0 mm 3 m/s 706 mmHg 64%
    11:00 +21°C° 0 mm 3 m/s 706 mmHg 61%
    12:00 +22°C° 0 mm 3 m/s 706 mmHg 58%
    13:00 +24°C° 0 mm 3 m/s 706 mmHg 55%
    14:00 +24°C° 0 mm 2 m/s 705 mmHg 53%
    15:00 +24°C° 0 mm 2 m/s 705 mmHg 52%
    16:00 +24°C° 0 mm 2 m/s 705 mmHg 50%
    17:00 +23°C° 0 mm 2 m/s 704 mmHg 56%
    18:00 +21°C° 0 mm 2 m/s 704 mmHg 61%
    19:00 +21°C° 0 mm 1 m/s 704 mmHg 67%
    20:00 +19°C° 0 mm 1 m/s 704 mmHg 71%
    21:00 +18°C° 0 mm 1 m/s 703 mmHg 74%
    22:00 +15°C° 0 mm 1 m/s 703 mmHg 78%
    23:00 +15°C° 0 mm 1 m/s 703 mmHg 80%

    21 Julho, Sábado

    Tempo Temperatura Precipitação Vento Pressão Humidade
    00:00 +14°C° 0 mm 1 m/s 703 mmHg 82%
    01:00 +14°C° 0 mm 1 m/s 703 mmHg 84%
    02:00 +14°C° 0 mm 1 m/s 703 mmHg 84%
    03:00 +13°C° 0 mm 1 m/s 702 mmHg 85%
    04:00 +13°C° 0 mm 1 m/s 702 mmHg 85%
    05:00 +15°C° 0 mm 1 m/s 702 mmHg 81%
    06:00 +18°C° 0 mm 1 m/s 703 mmHg 76%
    07:00 +19°C° 0 mm 1 m/s 703 mmHg 71%
    08:00 +21°C° 0 mm 1 m/s 703 mmHg 66%
    09:00 +22°C° 0 mm 1 m/s 703 mmHg 61%
    10:00 +23°C° 0 mm 2 m/s 703 mmHg 56%
    11:00 +24°C° 0 mm 2 m/s 703 mmHg 53%
    12:00 +25°C° 0 mm 2 m/s 703 mmHg 51%
    13:00 +25°C° 0 mm 2 m/s 703 mmHg 48%
    14:00 +25°C° 0 mm 1 m/s 703 mmHg 49%
    15:00 +25°C° 0 mm 1 m/s 703 mmHg 50%
    16:00 +25°C° 0 mm 1 m/s 702 mmHg 51%
    17:00 +24°C° 0,1 mm 1 m/s 702 mmHg 58%
    18:00 +22°C° 0,1 mm 1 m/s 702 mmHg 65%
    19:00 +20°C° 0,1 mm 2 m/s 702 mmHg 72%
    20:00 +19°C° 0 mm 2 m/s 702 mmHg 74%
    21:00 +19°C° 0 mm 1 m/s 702 mmHg 76%
    22:00 +18°C° 0 mm 1 m/s 701 mmHg 78%
    23:00 +16°C° 0,1 mm 1 m/s 701 mmHg 79%

    22 Julho, Domingo

    Tempo Temperatura Precipitação Vento Pressão Humidade
    00:00 +16°C° 0,1 mm 1 m/s 701 mmHg 81%
    01:00 +15°C° 0,1 mm 1 m/s 701 mmHg 82%
    02:00 +15°C° 0 mm 1 m/s 701 mmHg 82%
    03:00 +14°C° 0 mm 1 m/s 701 mmHg 83%
    04:00 +13°C° 0 mm 0 m/s 701 mmHg 83%
    05:00 +15°C° 0 mm 1 m/s 701 mmHg 80%
    06:00 +18°C° 0 mm 1 m/s 701 mmHg 76%
    07:00 +19°C° 0 mm 1 m/s 702 mmHg 72%
    08:00 +20°C° 0 mm 1 m/s 702 mmHg 70%
    09:00 +20°C° 0 mm 2 m/s 702 mmHg 67%
    10:00 +20°C° 0 mm 2 m/s 702 mmHg 64%
    11:00 +21°C° 0,1 mm 2 m/s 702 mmHg 61%
    12:00 +22°C° 0,1 mm 3 m/s 702 mmHg 59%
    13:00 +23°C° 0,1 mm 4 m/s 702 mmHg 56%
    14:00 +23°C° 0,3 mm 4 m/s 703 mmHg 56%
    15:00 +23°C° 0,3 mm 4 m/s 703 mmHg 56%
    16:00 +22°C° 0,3 mm 4 m/s 703 mmHg 56%
    17:00 +21°C° 0,1 mm 4 m/s 703 mmHg 60%
    18:00 +20°C° 0,1 mm 3 m/s 703 mmHg 64%
    19:00 +19°C° 0,1 mm 2 m/s 703 mmHg 68%
    20:00 +17°C° 0 mm 2 m/s 703 mmHg 70%
    21:00 +16°C° 0 mm 2 m/s 703 mmHg 72%
    22:00 +15°C° 0 mm 2 m/s 703 mmHg 75%
    23:00 +15°C° 0 mm 2 m/s 703 mmHg 76%

    23 Julho, Segunda-feira

    Tempo Temperatura Precipitação Vento Pressão Humidade
    00:00 +14°C° 0 mm 2 m/s 703 mmHg 77%
    01:00 +14°C° 0 mm 2 m/s 704 mmHg 79%
    02:00 +14°C° 0 mm 2 m/s 704 mmHg 81%
    03:00 +13°C° 0 mm 2 m/s 704 mmHg 83%
    04:00 +13°C° 0 mm 2 m/s 704 mmHg 86%
    05:00 +14°C° 0 mm 2 m/s 704 mmHg 82%
    06:00 +16°C° 0 mm 2 m/s 705 mmHg 79%
    07:00 +17°C° 0 mm 2 m/s 705 mmHg 75%
    08:00 +19°C° 0 mm 2 m/s 706 mmHg 70%
    09:00 +20°C° 0 mm 3 m/s 706 mmHg 65%
    10:00 +21°C° 0 mm 3 m/s 706 mmHg 60%
    11:00 +22°C° 0,1 mm 3 m/s 706 mmHg 58%
    12:00 +22°C° 0,1 mm 3 m/s 706 mmHg 55%
    13:00 +24°C° 0,1 mm 3 m/s 706 mmHg 53%
    14:00 +24°C° 0 mm 3 m/s 706 mmHg 53%
    15:00 +24°C° 0 mm 3 m/s 706 mmHg 53%
    16:00 +24°C° 0 mm 3 m/s 705 mmHg 53%
    17:00 +22°C° 0 mm 3 m/s 705 mmHg 58%
    18:00 +20°C° 0 mm 2 m/s 705 mmHg 64%
    19:00 +19°C° 0 mm 2 m/s 705 mmHg 69%
    20:00 +18°C° 0 mm 2 m/s 705 mmHg 72%
    21:00 +16°C° 0 mm 1 m/s 705 mmHg 75%
    22:00 +15°C° 0 mm 1 m/s 705 mmHg 79%
    23:00 +15°C° 0 mm 1 m/s 705 mmHg 81%
    Mostrar mais